Poughkeepsie, NY

4:16 AM EDT on May 21, 2018 (GMT -0400)
Dutchess County

Weather History for KPOU - December, 2012

Change the Weather History Date:

Thursday, December 27, 2012

  Actual Average Record
Temperature  
Mean Temperature 33 °F 28 °F  
Max Temperature 36 °F 37 °F 61 °F (1949)
Min Temperature 30 °F 18 °F -23 °F (1950)
Degree Days  
Heating Degree Days 32 37  
Month to date heating degree days 747 897  
Since 1 July heating degree days 1893 2175  
Cooling Degree Days 0 0  
Month to date cooling degree days 0 0  
Year to date cooling degree days 895 672  
Moisture  
Dew Point 28 °F    
Average Humidity 74    
Maximum Humidity 89    
Minimum Humidity 59    
Precipitation  
Precipitation 0.65 in 0.10 in 0.81 in (1949)
Month to date precipitation 4.02 3.13  
Year to date precipitation 36.28 46.13  
Sea Level Pressure  
Sea Level Pressure 29.52 in    
Wind  
Wind Speed 10 mph (NNW)    
Max Wind Speed 18 mph    
Max Gust Speed 24 mph    
Visibility 5 miles    
Events Rain , Snow    
T = Trace of Precipitation, MM = Missing Value Source: NWS Daily Summary

Daily Weather History Graph

Daily Weather History Graph

Search for Another Location

Airport or City:

Astronomy

Dec. 27, 2012 Rise Set
Actual Time 7:21 AM EST 4:32 PM EST
Civil Twilight 6:50 AM EST 5:03 PM EST
Nautical Twilight 6:15 AM EST 5:38 PM EST
Astronomical Twilight 5:41 AM EST 6:12 PM EST
Moon 4:13 PM EST (12/27) 6:30 AM EST (12/27)
Length of Visible Light 10h 13m
Length of Day
9h 10m
Full, 100% of the Moon is Illuminated
Dec 27
Full
Dec 28
Full
Jan 4
Last Quarter
Jan 11
New
Jan 18
First Quarter

Hourly Weather History & Observations

Time (EST) Temp. Windchill Dew Point Humidity Pressure Visibility Wind Dir Wind Speed Gust Speed Precip Events Conditions
12:53 AM 34.0 °F 26.6 °F 30.9 °F 89% 29.57 in 3.0 mi NNW 9.2 mph - 0.06 in Rain Rain
1:03 AM 30.2 °F 24.3 °F 28.4 °F 93% 29.57 in 4.0 mi NW 5.8 mph - 0.01 in Rain Light Freezing Rain
1:23 AM 30.2 °F 21.9 °F 28.4 °F 93% 29.55 in 3.0 mi NNW 9.2 mph - 0.04 in Rain Light Freezing Rain
1:32 AM 30.2 °F 21.3 °F 28.4 °F 93% 29.55 in 3.0 mi NW 10.4 mph - 0.05 in Rain Light Freezing Rain
1:36 AM 30.2 °F 21.9 °F 28.4 °F 93% 29.55 in 3.0 mi NNW 9.2 mph - 0.05 in Rain Light Freezing Rain
1:44 AM 30.2 °F 22.6 °F 28.4 °F 93% 29.55 in 2.5 mi North 8.1 mph - 0.06 in Snow Light Snow
1:53 AM 30.9 °F 22.8 °F 28.0 °F 89% 29.55 in 2.0 mi NNW 9.2 mph - 0.07 in Snow Light Snow
2:07 AM 30.2 °F 22.6 °F 28.4 °F 93% 29.55 in 3.0 mi NNW 8.1 mph - 0.00 in Snow Light Snow
2:21 AM 30.2 °F 21.9 °F 28.4 °F 93% 29.55 in 2.0 mi NNW 9.2 mph - 0.02 in Snow Light Snow
2:35 AM 30.2 °F 22.6 °F 28.4 °F 93% 29.54 in 3.0 mi NNW 8.1 mph - 0.02 in Snow Light Snow
2:49 AM 32.0 °F 22.5 °F 28.4 °F 87% 29.54 in 2.5 mi NNW 12.7 mph - 0.05 in Snow Light Snow
2:53 AM 32.0 °F 22.5 °F 28.0 °F 85% 29.53 in 2.5 mi NNW 12.7 mph - 0.05 in Snow Light Snow
2:59 AM 30.2 °F 20.2 °F 28.4 °F 93% 29.52 in 3.0 mi North 12.7 mph - 0.00 in Snow Light Snow
3:07 AM 30.2 °F 20.8 °F 28.4 °F 93% 29.52 in 2.5 mi North 11.5 mph - 0.00 in Snow Light Snow
3:16 AM 32.0 °F 23.6 °F 28.4 °F 87% 29.51 in 2.5 mi North 10.4 mph - 0.00 in Snow Light Snow
3:24 AM 32.0 °F 23.6 °F 28.4 °F 87% 29.51 in 1.8 mi North 10.4 mph - 0.02 in Snow Light Snow
3:35 AM 32.0 °F 23.6 °F 28.4 °F 87% 29.50 in 1.8 mi North 10.4 mph - 0.02 in Snow Light Snow
3:53 AM 32.0 °F 23.0 °F 28.9 °F 88% 29.50 in 1.8 mi NNW 11.5 mph - 0.05 in Snow Light Snow
4:00 AM 32.0 °F 23.0 °F 28.4 °F 87% 29.49 in 2.0 mi North 11.5 mph - 0.01 in Snow Light Snow
4:04 AM 32.0 °F 23.0 °F 28.4 °F 87% 29.49 in 1.8 mi North 11.5 mph - 0.02 in Snow Light Snow
4:22 AM 32.0 °F 21.2 °F 28.4 °F 87% 29.46 in 2.0 mi North 16.1 mph - 0.09 in   Overcast
4:53 AM 32.0 °F 22.5 °F 28.9 °F 88% 29.44 in 2.0 mi North 12.7 mph 21.9 mph 0.20 in   Overcast
5:02 AM 33.8 °F 25.3 °F 30.2 °F 87% 29.43 in 2.5 mi North 11.5 mph 20.7 mph 0.00 in Snow Light Snow
5:07 AM 33.8 °F 23.2 °F 30.2 °F 87% 29.42 in 3.0 mi North 17.3 mph 20.7 mph 0.00 in   Overcast
5:28 AM 33.8 °F 25.3 °F 30.2 °F 87% 29.42 in 10.0 mi North 11.5 mph - 0.00 in Rain Light Freezing Rain
5:53 AM 33.1 °F 26.9 °F 30.0 °F 89% 29.42 in 5.0 mi North 6.9 mph - 0.03 in Rain Light Freezing Rain
6:43 AM 33.8 °F 24.8 °F 30.2 °F 87% 29.39 in 8.0 mi North 12.7 mph - 0.04 in Rain Light Freezing Rain
6:53 AM 33.1 °F 23.4 °F 28.9 °F 85% 29.39 in 8.0 mi North 13.8 mph 20.7 mph 0.05 in Rain Light Freezing Rain
7:50 AM 33.8 °F 25.3 °F 28.4 °F 81% 29.38 in 2.5 mi NNW 11.5 mph - 0.07 in Rain Light Freezing Rain
7:53 AM 33.1 °F 25.5 °F 28.9 °F 85% 29.38 in 2.5 mi NNW 9.2 mph 17.3 mph 0.08 in Rain Light Freezing Rain
7:59 AM 33.8 °F 24.8 °F 28.4 °F 81% 29.39 in 3.0 mi NNW 12.7 mph 17.3 mph 0.01 in Rain Light Freezing Rain
8:09 AM 33.8 °F 25.8 °F 28.4 °F 81% 29.39 in 4.0 mi NNW 10.4 mph 18.4 mph 0.03 in Rain Light Rain
8:33 AM 33.8 °F 25.3 °F 28.4 °F 81% 29.39 in 9.0 mi North 11.5 mph - 0.03 in   Overcast
8:53 AM 33.1 °F 24.9 °F 28.9 °F 85% 29.40 in 10.0 mi NNW 10.4 mph 19.6 mph 0.03 in   Overcast
9:53 AM 33.1 °F 23.9 °F 28.9 °F 85% 29.44 in 10.0 mi NNW 12.7 mph 23.0 mph N/A   Overcast
10:53 AM 34.0 °F 26.0 °F 30.0 °F 85% 29.46 in 10.0 mi North 10.4 mph - N/A   Overcast
11:12 AM 33.8 °F 25.8 °F 30.2 °F 87% 29.47 in 1.8 mi North 10.4 mph - 0.00 in Snow Light Snow
11:37 AM 33.8 °F 27.0 °F 30.2 °F 87% 29.48 in 1.0 mi North 8.1 mph - 0.01 in Snow Light Snow
11:53 AM 34.0 °F 26.0 °F 30.0 °F 85% 29.47 in 1.2 mi NNW 10.4 mph - 0.01 in Snow Light Snow
12:24 PM 33.8 °F 27.0 °F 30.2 °F 87% 29.49 in 0.8 mi NNW 8.1 mph - 0.01 in Snow Light Snow
12:53 PM 34.0 °F 25.5 °F 30.0 °F 85% 29.49 in 0.8 mi North 11.5 mph - 0.02 in Snow Light Snow
1:01 PM 33.8 °F 25.3 °F 30.2 °F 87% 29.49 in 1.0 mi North 11.5 mph 19.6 mph 0.00 in Snow Light Snow
1:12 PM 33.8 °F 25.3 °F 30.2 °F 87% 29.49 in 1.2 mi North 11.5 mph 20.7 mph 0.00 in Snow Light Snow
1:16 PM 33.8 °F 26.4 °F 30.2 °F 87% 29.50 in 1.5 mi North 9.2 mph - 0.00 in Snow Light Snow
1:24 PM 33.8 °F 25.3 °F 30.2 °F 87% 29.50 in 1.8 mi North 11.5 mph - 0.00 in Snow Light Snow
1:32 PM 33.8 °F 27.0 °F 30.2 °F 87% 29.50 in 2.0 mi NNW 8.1 mph 18.4 mph 0.00 in Snow Light Snow
1:53 PM 34.0 °F 26.6 °F 30.0 °F 85% 29.50 in 3.0 mi North 9.2 mph 17.3 mph 0.00 in Snow Light Snow
2:03 PM 35.6 °F 28.0 °F 28.4 °F 75% 29.50 in 2.0 mi North 10.4 mph 17.3 mph 0.00 in Snow Light Snow
2:37 PM 35.6 °F 29.2 °F 28.4 °F 75% 29.52 in 7.0 mi NNW 8.1 mph - 0.00 in   Overcast
2:53 PM 35.1 °F 30.1 °F 30.0 °F 82% 29.52 in 7.0 mi NNW 5.8 mph - 0.00 in   Overcast
4:44 PM 35.6 °F 29.9 °F 28.4 °F 75% 29.57 in 10.0 mi NW 6.9 mph - N/A   Overcast
4:53 PM 36.0 °F 30.3 °F 28.0 °F 73% 29.57 in 10.0 mi NW 6.9 mph - N/A   Overcast
5:40 PM 35.6 °F 27.1 °F 24.8 °F 65% 29.61 in 10.0 mi NW 12.7 mph 19.6 mph N/A   Overcast
5:53 PM 35.1 °F 26.4 °F 25.0 °F 67% 29.62 in 10.0 mi NW 12.7 mph 19.6 mph N/A   Overcast
7:37 PM 33.8 °F 26.4 °F 21.2 °F 60% 29.70 in 10.0 mi WNW 9.2 mph 19.6 mph N/A   Overcast
7:53 PM 33.1 °F 25.5 °F 21.9 °F 64% 29.71 in 10.0 mi West 9.2 mph - N/A   Overcast
8:53 PM 32.0 °F 23.0 °F 19.9 °F 61% 29.73 in 10.0 mi WNW 11.5 mph - N/A   Overcast
9:53 PM 32.0 °F 26.4 °F 19.9 °F 61% 29.76 in 10.0 mi Variable 5.8 mph - N/A   Overcast
10:53 PM 30.9 °F 22.2 °F 19.0 °F 61% 29.79 in 10.0 mi WNW 10.4 mph - N/A   Overcast
11:53 PM 30.0 °F 22.4 °F 19.0 °F 64% 29.81 in 10.0 mi WNW 8.1 mph - N/A   Scattered Clouds